Regional Weather Roundup
Issued by NWS Wakefield, VA

Home | Current Version | Previous Version | Graphics & Text | Print | Product List | Glossary On
Versions: 1 2 3 4 5 6 7 8 9 10 11 12 13 14 15 16 17 18 19 20 21 22 23 24 25 26 27 28 29 30 31 32 33 34 35 36 37 38 39 40 41 42 43 44 45 46 47 48 49 50
000
ASUS41 KAKQ 020010
RWRAKQ

REGIONAL WEATHER ROUNDUP
NATIONAL WEATHER SERVICE WAKEFIELD VA
800 PM EDT MON SEP 01 2014

Note: "fair" indicates few or no clouds below 12,000 feet with no
significant weather and/or obstructions to visibility. * = Denotes
station may not report precipitation (e.g., rain,snow,etc.),
thunder or fog.

VAZ042-051-052>054-056-020100-
NORTHERN VIRGINIA

CITY           SKY/WX    TMP DP  RH WIND       PRES   REMARKS
WASH NATIONAL  MOCLDY    84  72  67 SE3       29.96S
DULLES         PTCLDY    79  73  82 S6        29.96S
FORT BELVOIR   CLEAR     78  76  91 SE3       29.96S
QUANTICO       CLEAR     82  75  79 S3        29.96S
FREDERICKSBRG* CLEAR     82  78  87 S7        29.95S
STAFFORD*      CLEAR     79  79 100 CALM      30.00S
WARRENTON      NOT AVBL
CULPEPER*      CLEAR    N/A N/A N/A CALM      29.96S
MANASSAS*      CLEAR     81  75  83 SE6       29.96
LEESBURG*      CLEAR     82  77  83 S6        29.96F
WINCHESTER     CLEAR     81  66  61 S5        29.97R
$$

VAZ048-049-060>072-079>083-020100-
CENTRAL AND SOUTH CENTRAL VIRGINIA...AND NORTH CENTRAL NORTH CAROLINA

CITY           SKY/WX    TMP DP  RH WIND       PRES   REMARKS
RICHMOND       PTCLDY    86  70  58 SW9       29.99R
CHESTERFIELD*  PTCLDY    82  64  54 S5        30.01R
PETERSBURG*    PTCLDY    81  70  68 SW3       30.00S
HANOVER        CLEAR     87  69  54 SW5       30.00R
TAPPAHANNOCK*  MOCLDY    84  70  63 S3        29.98R
CHARLOTTSVILLE CLEAR     83  69  62 SW5       29.98R
ORANGE*        CLEAR     82  70  65 S3        29.98S
LOUISA*        CLEAR     82  72  69 S3        29.97S
FARMVILLE*     CLEAR     82  68  61 SW3       29.99R
SOUTH HILL*    PTCLDY    81  75  83 CALM      30.08R
ROANOKE RAPIDS PTCLDY    81  70  69 CALM      30.02R
RALEIGH        MOCLDY    82  70  66 CALM      30.04R
$$

VAZ088>098-020100-
SOUTHEAST VIRGINIA

CITY           SKY/WX    TMP DP  RH WIND       PRES   REMARKS
NORFOLK        MOCLDY    88  68  51 SW12G17   29.99R
VIRGINIA BEACH CLOUDY    86  73  65 SW7       29.99R
NORFOLK NAVAL  MOCLDY    89  68  49 SW7       30.00S
WEST POINT*    PTCLDY    87  71  58 SW5       29.99R
NEWPORT NEWS   PTCLDY    88  71  57 SW10      29.98F
LANGLEY AFB    MOCLDY    86  70  58 SW8       29.98S
FORT EUSTIS    PTCLDY    85  69  58 SW5       29.97S
WILLIAMSBURG*  PTCLDY    88  73  62 SW7       30.00R HX  96
FRANKLIN*      MOCLDY    82  68  61 SW3       30.01R
WAKEFIELD      PTCLDY    83  70  64 SW3       30.00S
$$

VAZ020-022-025-037-045-020100-
WESTERN AND SOUTHWEST VIRGINIA

CITY           SKY/WX    TMP DP  RH WIND       PRES   REMARKS
STAUNTON*      CLEAR     83  64  53 SW5       30.03R
HOT SPRINGS VA PTCLDY    70  58  66 W13       30.21R
LYNCHBURG      CLEAR     77  70  79 SW3       30.05R
DANVILLE       CLEAR     79  70  74 S3        30.03R
MARTINSVILLE   CLEAR     75  73  92 CALM      30.08R
ROANOKE        PTCLDY    82  64  54 SW5       30.07R
BLACKSBURG     PTCLDY    77  70  78 CALM      30.14R
DUBLIN*        PTCLDY    76  67  73 SW5       30.13R
MARION*        CLEAR    N/A N/A N/A CALM      30.18R
HILLSVILLE*    CLEAR     76  64  65 SW6       30.17R
RICHLANDS*     CLEAR     80  65  61 SW7       30.15R
WISE*          MOCLDY    75  63  64 S6        30.16R
ABINGDON*      CLEAR     78  69  73 CALM      30.12R
$$

MDZ021>025-VAZ099-100-020100-
SOUTHERN MARYLAND AND THE DELMARVA PENINSULA

CITY           SKY/WX    TMP DP  RH WIND       PRES   REMARKS
PATUXENT RIVER CLEAR     82  72  71 SW8       29.96R
BAY BRIDGE APT   N/A     81  77  89 S3        29.96R
LEONARDTOWN    MOCLDY    82  72  69 SE3       29.99R
DOVER          PTCLDY    83  74  74 E2        29.94R
GEORGETOWN     PTCLDY    84  72  67 S15       29.97R
EASTON         PTCLDY    86  77  74 CALM      30.00R HX  97
CAMBRIDGE      NOT AVBL
SALISBURY      PTCLDY    82  69  64 S8        29.97R
OCEAN CITY     MOCLDY    81  77  88 SW8       29.97R
WALLOPS ISLAND MOCLDY    79  69  71 SW3       29.98S
ACCOMACK*      NOT AVBL
$$

NCZ012>017-030>032-020100-
EASTERN NORTH CAROLINA

CITY           SKY/WX    TMP DP  RH WIND       PRES   REMARKS
ELIZABETH CITY MOCLDY    84  76  76 S8        30.02R
AHOSKIE*       MOCLDY    80  76  87 CALM      30.02S
EDENTON*       MOCLDY    84  77  79 S8        30.02S
CURRITUCK*     MOCLDY    85  74  70 CALM      30.03R
KILL DEVIL HLS MOCLDY    82  76  81 S7        30.03R
MANTEO         MOCLDY    82  76  83 S16       30.04S
CAPE HATTERAS  PTCLDY    80  78  94 SW13      30.06R
GOLDSBORO      CLOUDY    85  78  78 S5        30.02R HX  97
WASHINGTON     MOCLDY    84  77  79 S8        30.04R
GREENVILLE     CLOUDY    82  77  83 CALM      30.05R
NEW BERN       MOCLDY    82  76  81 SW7       30.07R
WILMINGTON     MOCLDY    82  75  79 S8        30.06R
$$

VAZ048-020100-
ELSEWHERE

CITY           SKY/WX    TMP DP  RH WIND       PRES   REMARKS
HARRISBURG PA  PTCLDY    78  74  87 CALM      29.93S
BALTIMORE      PTCLDY    82  73  74 CALM      29.95S
ANNAPOLIS      MOCLDY    82  75  79 CALM      29.96R
ANDREWS AFB    CLEAR     80  74  82 SE2       29.97R
WILMINGTON DE  CLEAR     81  74  79 S7        29.95S
PHILADELPHIA   PTCLDY    84  73  69 S9        29.95R
WILDWOOD NJ*   PTCLDY    79  72  78 CALM      29.97R
ATLANTIC CITY  CLEAR     79  74  84 S7        29.96R
HENDERSON NC   PTCLDY    82  70  67 CALM      30.04R
GREENSBORO     PTCLDY    86  64  47 CALM      30.06R
ROCKY MOUNT    CLOUDY    80  74  81 CALM      30.03R
FAYETTEVILLE   MOCLDY    88  73  61 S7        30.03S HX  95
CHARLOTTE      MOCLDY    85  68  56 SW5       30.06R
$$

VAZ100-020100-
MARINE

STATION/POSITION TIME  TEMP    WIND        PRES    WAVE   SWELL
                       AIR SEA DIR/SP/G            HT/PER HT/PER
                 (UTC) (F)     (DEG/KT/KT) (MB)    (FT/S) (FT/S)
44066 TX TWR #4  0000   75 74  210/ 14/ 16 1014.8S   4/ 6   2/ 9
CAPE MAY NJ      0000   78 80  120/  4/  5 1014.0R
LEWES DE         0000   86 78  240/  3/  4 1014.0F
15NM E FENWICK I 0000   78 76              1014.5S   3/ 8
OCEAN-CITY-INLET 0000   79 78  220/ 10/ 12 1014.5S
WACHAPREAGUE VA  0000   80 84  210/  5/ 10 1015.5R
THOMAS POINT MD  0000   83 80  210/  5/  5 1015.5R
GOOSES REEF MD   0000   81     190/  8/  8 1014.7S
COVE POINT MD    0000   83     190/ 10/ 11 1014.4R
SOLOMONS ISLAND  0000      81                N/A
BISHOPS HEAD MD  0000   81 81  200/ 13/ 16 1014.1F
PINEY POINT MD   0000          200/  7/  8   N/A
POTOMAC MD       0000   81     210/ 10/ 12 1014.0S
CAMBRIDGE MD     0000   81 80  190/  3/  5 1014.2R
LEWISETTA VA     0000   81 83  190/  7/  9 1014.3R
RAPPAHANNOCK LGT 0000          180/ 10/ 11 1015.4S
STINGRAY PT      0000   81     190/ 12/ 14   N/A
YORK RVR RNG VA  0000   85     230/ 11/ 12 1014.5R
YORKTOWN VA      0000   86 81  230/  6/  8 1014.6F
JAMESTOWN VA     0000   86     250/  4/  8   N/A
DOMINION TERM VA 0000   85     250/  9/ 11 1015.7R
KIPTOPEKE VA     0000      83  130/  5/  5   N/A
CHES BAY BRIDGE  0000   87 79  210/ 12/ 14 1014.9R
CAPE HENRY VA    0000   88     210/  5/  8 1014.3R
CHESAPEAKE LGHT  2300   81     180/ 19/ 20 1015.6F
WILLOUBY STN VA  0000   86     270/  8/ 10 1014.3R
S CRANEY ISL VA  0000          220/  6/  9 1015.5R
CAPE HENRY BUOY  0000      80                N/A     3/ 4
1ST LANDING BUOY 0000   86     230/ 10/ 16 1015.0S
CAPE CHARLES BUO 0000      79                N/A     3/10   2/10
OFFSHORE WE BUOY 0000      79                N/A     3/ 9   2/ 9
64NM E OF VA BCH 0000   80 78  200/ 16/ 17 1016.4R   3/ 8   2/ 8
DUCK PIER NC     0000   83 75  180/ 14/ 19 1015.7R
44056 DUCK FRF   0000                        N/A     2/11   2/11
OREGON INLET NC  0000   82 85  200/ 16/ 19 1017.4R
HATTERAS NC      0000   82 84  210/  9/ 14 1018.4R
DIAMOND SHLS NC  0000   82     200/ 16/ 19 1017.7R   3/ 4   2/ 9
CAPE LOOKOUT NC  2300   82     200/ 10/ 13 1017.8R
$$



USA.gov is the U.S. government's official web portal to all federal, state and local government web resources and services.